| time (UTC) | temp F | wind direction | speed knots | gust knots | rain 1hr in | rain 24hr in | rain mn in | humidity % | barometer mb |
| 20260906234802 | 89 | 155 | 3.5 | 6.1 | 0.00 | 0.00 | 0.00 | 64 | 1013.5 |
| 20260906234302 | 89 | 189 | 3.5 | 7.8 | 0.00 | 0.00 | 0.00 | 63 | 1013.6 |
| 20260906233802 | 90 | 157 | 3.5 | 7.8 | 0.00 | 0.00 | 0.00 | 62 | 1013.5 |
| 20260906233302 | 90 | 189 | 4.3 | 8.7 | 0.00 | 0.00 | 0.00 | 62 | 1013.4 |
| 20260906232803 | 91 | 188 | 4.3 | 8.7 | 0.00 | 0.00 | 0.00 | 62 | 1013.3 |
| 20260906232306 | 92 | 178 | 4.3 | 8.7 | 0.00 | 0.00 | 0.00 | 61 | 1013.3 |
| 20260906231802 | 92 | 135 | 3.5 | 7.0 | 0.00 | 0.00 | 0.00 | 61 | 1013.3 |
| 20260906231302 | 92 | 175 | 4.3 | 8.7 | 0.00 | 0.00 | 0.00 | 61 | 1013.4 |
| 20260906230802 | 92 | 138 | 4.3 | 11.3 | 0.00 | 0.00 | 0.00 | 60 | 1013.7 |
| 20260906230303 | 93 | 174 | 4.3 | 11.3 | 0.00 | 0.00 | 0.00 | 59 | 1013.6 |
| 20260906230026 | 93 | 181 | 4.3 | 9.6 | 0.00 | 0.00 | 0.00 | 57 | 1013.5 |
| 20260906225307 | 94 | 140 | 2.6 | 9.6 | 0.00 | 0.00 | 0.00 | 58 | 1013.4 |
| 20260906224803 | 94 | 259 | 1.7 | 7.0 | 0.00 | 0.00 | 0.00 | 56 | 1013.5 |
| 20260906224303 | 93 | 228 | 1.7 | 7.0 | 0.00 | 0.00 | 0.00 | 58 | 1013.4 |
| 20260906223803 | 92 | 159 | 0.9 | 3.5 | 0.00 | 0.00 | 0.00 | 57 | 1013.5 |
| 20260906223303 | 92 | 159 | 0.9 | 3.5 | 0.00 | 0.00 | 0.00 | 59 | 1013.5 |
| 20260906222802 | 92 | 159 | 1.7 | 4.3 | 0.00 | 0.00 | 0.00 | 57 | 1013.5 |
| 20260906222305 | 92 | 0 | 2.6 | 4.3 | 0.00 | 0.00 | 0.00 | 58 | 1013.4 |
| 20260906222250 | 92 | 116 | 2.6 | 6.1 | 0.00 | 0.00 | 0.00 | 58 | 1013.6 |
| 20260906221301 | 92 | 120 | 2.6 | 6.1 | 0.00 | 0.00 | 0.00 | 58 | 1013.7 |
| 20260906220758 | 92 | 123 | 2.6 | 6.1 | 0.00 | 0.00 | 0.00 | 58 | 1013.9 |
| 20260906220256 | 92 | 134 | 2.6 | 6.1 | 0.00 | 0.00 | 0.00 | 57 | 1013.8 |
| 20260906215756 | 92 | 140 | 2.6 | 6.1 | 0.00 | 0.00 | 0.00 | 57 | 1013.8 |
| 20260906215256 | 93 | 144 | 2.6 | 6.1 | 0.00 | 0.00 | 0.00 | 59 | 1013.8 |
| 20260906214755 | 93 | 105 | 1.7 | 6.1 | 0.00 | 0.00 | 0.00 | 57 | 1013.8 |
| 20260906214253 | 93 | 148 | 0.9 | 5.2 | 0.00 | 0.00 | 0.00 | 56 | 1013.8 |
| 20260906213751 | 93 | 158 | 2.6 | 6.1 | 0.00 | 0.00 | 0.00 | 57 | 1013.9 |
| 20260906213516 | 93 | 145 | 2.6 | 6.1 | 0.00 | 0.00 | 0.00 | 58 | 1014.0 |
| 20260906212743 | 93 | 102 | 2.6 | 6.1 | 0.00 | 0.00 | 0.00 | 57 | 1014.0 |
| 20260906212238 | 93 | 164 | 2.6 | 9.6 | 0.00 | 0.00 | 0.00 | 57 | 1014.1 |
| 20260906211732 | 93 | 104 | 2.6 | 9.6 | 0.00 | 0.00 | 0.00 | 55 | 1014.1 |
| 20260906211225 | 93 | 157 | 4.3 | 10.4 | 0.00 | 0.00 | 0.00 | 55 | 1014.2 |
| 20260906210722 | 94 | 123 | 4.3 | 10.4 | 0.00 | 0.00 | 0.00 | 55 | 1014.3 |
| 20260906210439 | 94 | 163 | 3.5 | 9.6 | 0.00 | 0.00 | 0.00 | 55 | 1014.3 |
| 20260906205720 | 94 | 74 | 1.7 | 6.1 | 0.00 | 0.00 | 0.00 | 55 | 1014.4 |
| 20260906205217 | 94 | 218 | 2.6 | 7.8 | 0.00 | 0.00 | 0.00 | 54 | 1014.4 |
| 20260906204717 | 94 | 225 | 2.6 | 7.8 | 0.00 | 0.00 | 0.00 | 55 | 1014.5 |
| 20260906204218 | 93 | 117 | 4.3 | 7.8 | 0.00 | 0.00 | 0.00 | 56 | 1014.6 |
| 20260906203718 | 93 | 120 | 3.5 | 7.8 | 0.00 | 0.00 | 0.00 | 56 | 1014.5 |
| 20260906203216 | 93 | 176 | 1.7 | 5.2 | 0.00 | 0.00 | 0.00 | 57 | 1014.5 |
| 20260906202716 | 93 | 103 | 2.6 | 6.1 | 0.00 | 0.00 | 0.00 | 55 | 1014.6 |
| 20260906202437 | 93 | 23 | 3.5 | 7.0 | 0.00 | 0.00 | 0.00 | 56 | 1014.6 |
| 20260906201710 | 93 | 109 | 3.5 | 8.7 | 0.00 | 0.00 | 0.00 | 56 | 1014.6 |
| 20260906201210 | 93 | 80 | 2.6 | 8.7 | 0.00 | 0.00 | 0.00 | 55 | 1014.7 |
| 20260906200710 | 93 | 40 | 1.7 | 7.0 | 0.00 | 0.00 | 0.00 | 55 | 1014.8 |
| 20260906200210 | 94 | 155 | 2.6 | 8.7 | 0.00 | 0.00 | 0.00 | 55 | 1014.8 |
| 20260906195708 | 94 | 104 | 3.5 | 8.7 | 0.00 | 0.00 | 0.00 | 55 | 1014.8 |
| 20260906195208 | 94 | 137 | 2.6 | 7.0 | 0.00 | 0.00 | 0.00 | 54 | 1014.9 |
| 20260906194707 | 94 | 152 | 1.7 | 7.0 | 0.00 | 0.00 | 0.00 | 53 | 1015.1 |
| 20260906194207 | 95 | 323 | 1.7 | 3.5 | 0.00 | 0.00 | 0.00 | 54 | 1015.1 |
| 20260906193703 | 95 | 319 | 2.6 | 7.0 | 0.00 | 0.00 | 0.00 | 52 | 1015.1 |
| 20260906193201 | 95 | 250 | 1.7 | 7.0 | 0.00 | 0.00 | 0.00 | 52 | 1015.2 |
| 20260906192655 | 94 | 215 | 1.7 | 6.1 | 0.00 | 0.00 | 0.00 | 53 | 1015.3 |
| 20260906192413 | 95 | 223 | 1.7 | 6.1 | 0.00 | 0.00 | 0.00 | 52 | 1015.4 |
| 20260906191644 | 95 | 180 | 2.6 | 7.8 | 0.00 | 0.00 | 0.00 | 52 | 1015.4 |
| 20260906191356 | 94 | 176 | 3.5 | 7.8 | 0.00 | 0.00 | 0.00 | 53 | 1015.5 |
| 20260906190638 | 94 | 169 | 2.6 | 7.0 | 0.00 | 0.00 | 0.00 | 54 | 1015.5 |
| 20260906190138 | 93 | 157 | 1.7 | 7.0 | 0.00 | 0.00 | 0.00 | 55 | 1015.5 |
| 20260906185905 | 93 | 308 | 1.7 | 5.2 | 0.00 | 0.00 | 0.00 | 55 | 1015.5 |
| 20260906185136 | 92 | 0 | 1.7 | 4.3 | 0.00 | 0.00 | 0.00 | 54 | 1015.5 |
| 20260906184634 | 92 | 324 | 1.7 | 6.1 | 0.00 | 0.00 | 0.00 | 55 | 1015.6 |
| 20260906184133 | 92 | 263 | 1.7 | 6.1 | 0.00 | 0.00 | 0.00 | 57 | 1015.7 |
| 20260906183852 | 92 | 196 | 2.6 | 6.1 | 0.00 | 0.00 | 0.00 | 55 | 1015.7 |
| 20260906183131 | 92 | 103 | 2.6 | 6.1 | 0.00 | 0.00 | 0.00 | 55 | 1015.8 |
| 20260906182632 | 91 | 153 | 2.6 | 5.2 | 0.00 | 0.00 | 0.00 | 57 | 1015.8 |
| 20260906182131 | 91 | 172 | 1.7 | 7.8 | 0.00 | 0.00 | 0.00 | 59 | 1015.8 |
| 20260906181630 | 91 | 121 | 1.7 | 7.8 | 0.00 | 0.00 | 0.00 | 61 | 1015.9 |
| 20260906181131 | 91 | 0 | 3.5 | 7.8 | 0.00 | 0.00 | 0.00 | 61 | 1016.0 |
| 20260906180630 | 91 | 159 | 3.5 | 7.8 | 0.00 | 0.00 | 0.00 | 62 | 1016.1 |
| 20260906180131 | 91 | 121 | 2.6 | 7.8 | 0.00 | 0.00 | 0.00 | 64 | 1016.2 |
| 20260906175834 | 91 | 298 | 1.7 | 4.3 | 0.00 | 0.00 | 0.00 | 64 | 1016.5 |
| 20260906175826 | 92 | 345 | 0.9 | 3.5 | 0.00 | 0.00 | 0.00 | 63 | 1016.5 |
| 20260906174630 | 90 | 304 | 1.7 | 4.3 | 0.00 | 0.00 | 0.00 | 64 | 1016.6 |
| 20260906174131 | 89 | 9 | 1.7 | 3.5 | 0.00 | 0.00 | 0.00 | 65 | 1016.7 |
| 20260906173625 | 90 | 334 | 1.7 | 6.1 | 0.00 | 0.00 | 0.00 | 62 | 1016.8 |
| 20260906173120 | 90 | 292 | 2.6 | 7.0 | 0.00 | 0.00 | 0.00 | 62 | 1017.0 |
| 20260906172613 | 90 | 313 | 2.6 | 7.0 | 0.00 | 0.00 | 0.00 | 63 | 1017.0 |
| 20260906172107 | 90 | 350 | 3.5 | 7.8 | 0.00 | 0.00 | 0.00 | 62 | 1017.2 |
| 20260906171603 | 90 | 351 | 3.5 | 7.8 | 0.00 | 0.00 | 0.00 | 63 | 1017.3 |
| 20260906171103 | 89 | 12 | 1.7 | 6.1 | 0.00 | 0.00 | 0.00 | 63 | 1017.3 |
| 20260906170828 | 89 | 42 | 1.7 | 3.5 | 0.00 | 0.00 | 0.00 | 67 | 1017.4 |
| 20260906165603 | 88 | 65 | 1.7 | 3.5 | 0.00 | 0.00 | 0.00 | 67 | 1017.4 |
| 20260906165103 | 87 | 304 | 1.7 | 3.5 | 0.00 | 0.00 | 0.00 | 71 | 1017.6 |
| 20260906164601 | 87 | 106 | 1.7 | 3.5 | 0.00 | 0.00 | 0.00 | 70 | 1017.5 |
| 20260906164059 | 86 | 65 | 1.7 | 5.2 | 0.00 | 0.00 | 0.00 | 71 | 1017.5 |
| 20260906163557 | 86 | 40 | 1.7 | 5.2 | 0.00 | 0.00 | 0.00 | 72 | 1017.6 |
| 20260906163055 | 86 | 117 | 0.9 | 3.5 | 0.00 | 0.00 | 0.00 | 73 | 1017.6 |
| 20260906162555 | 85 | 88 | 0.9 | 3.5 | 0.00 | 0.00 | 0.00 | 74 | 1017.5 |
| 20260906162055 | 85 | 88 | 1.7 | 5.2 | 0.00 | 0.00 | 0.00 | 74 | 1017.6 |
| 20260906161555 | 85 | 94 | 1.7 | 5.2 | 0.00 | 0.00 | 0.00 | 74 | 1017.6 |
| 20260906161055 | 84 | 96 | 1.7 | 3.5 | 0.00 | 0.00 | 0.00 | 75 | 1017.6 |
| 20260906161030 | 84 | 67 | 0.9 | 3.5 | 0.00 | 0.00 | 0.00 | 75 | 1017.6 |
| 20260906161023 | 84 | 56 | 0.9 | 3.5 | 0.00 | 0.00 | 0.00 | 76 | 1017.5 |
| 20260906155554 | 84 | 41 | 0.0 | 2.6 | 0.00 | 0.00 | 0.00 | 76 | 1017.4 |
| 20260906155047 | 84 | 107 | 0.0 | 2.6 | 0.00 | 0.00 | 0.00 | 75 | 1017.5 |
| 20260906154545 | 84 | 107 | 0.9 | 4.3 | 0.00 | 0.00 | 0.00 | 76 | 1017.4 |
| 20260906154045 | 84 | 124 | 1.7 | 4.3 | 0.00 | 0.00 | 0.00 | 76 | 1017.3 |
| 20260906153544 | 84 | 178 | 0.9 | 2.6 | 0.00 | 0.00 | 0.00 | 77 | 1017.3 |
| 20260906153044 | 84 | 181 | 0.9 | 4.3 | 0.00 | 0.00 | 0.00 | 77 | 1017.1 |
| 20260906152543 | 84 | 184 | 0.9 | 4.3 | 0.00 | 0.00 | 0.00 | 78 | 1017.1 |
| 20260906152307 | 83 | 134 | 0.9 | 3.5 | 0.00 | 0.00 | 0.00 | 78 | 1017.1 |
| 20260906151807 | 83 | 120 | 0.9 | 3.5 | 0.00 | 0.00 | 0.00 | 78 | 1017.0 |
| 20260906151041 | 83 | 155 | 0.9 | 2.6 | 0.00 | 0.00 | 0.00 | 79 | 1017.0 |
| 20260906150541 | 83 | 155 | 0.9 | 2.6 | 0.00 | 0.00 | 0.00 | 79 | 1017.0 |
| 20260906150041 | 82 | 156 | 0.9 | 2.6 | 0.00 | 0.00 | 0.00 | 80 | 1017.0 |
| 20260906145541 | 82 | 0 | 0.9 | 1.7 | 0.00 | 0.00 | 0.00 | 80 | 1016.9 |
| 20260906145041 | 82 | 155 | 0.9 | 1.7 | 0.00 | 0.00 | 0.00 | 81 | 1016.8 |
| 20260906144541 | 82 | 155 | 0.9 | 2.6 | 0.00 | 0.00 | 0.00 | 81 | 1016.8 |
| 20260906144041 | 82 | 155 | 0.9 | 3.5 | 0.00 | 0.00 | 0.00 | 82 | 1016.8 |
| 20260906143541 | 81 | 155 | 0.9 | 3.5 | 0.00 | 0.00 | 0.00 | 82 | 1016.7 |
| 20260906143041 | 81 | 161 | 0.9 | 3.5 | 0.00 | 0.00 | 0.00 | 83 | 1016.8 |
| 20260906142541 | 81 | 163 | 0.9 | 3.5 | 0.00 | 0.00 | 0.00 | 83 | 1016.7 |
| 20260906142041 | 81 | 163 | 0.0 | 1.7 | 0.00 | 0.00 | 0.00 | 84 | 1016.7 |
| 20260906141541 | 80 | 205 | 0.0 | 1.7 | 0.00 | 0.00 | 0.00 | 85 | 1016.7 |
| 20260906141040 | 80 | 205 | 0.0 | 1.7 | 0.00 | 0.00 | 0.00 | 85 | 1016.7 |
| 20260906140539 | 80 | 206 | 0.0 | 0.0 | 0.00 | 0.00 | 0.00 | 86 | 1016.6 |
| 20260906140039 | 80 | 206 | 0.0 | 0.0 | 0.00 | 0.00 | 0.00 | 87 | 1016.6 |
| 20260906135539 | 79 | 206 | 0.0 | 0.0 | 0.00 | 0.00 | 0.00 | 87 | 1016.5 |
| 20260906135039 | 79 | 206 | 0.0 | 0.0 | 0.00 | 0.00 | 0.00 | 87 | 1016.6 |
| 20260906134758 | 79 | 206 | 0.0 | 0.0 | 0.00 | 0.00 | 0.00 | 87 | 1016.5 |
| 20260906134037 | 79 | 206 | 0.0 | 0.0 | 0.00 | 0.00 | 0.00 | 88 | 1016.5 |
| 20260906133535 | 78 | 206 | 0.0 | 0.0 | 0.00 | 0.00 | 0.00 | 88 | 1016.5 |
| 20260906133036 | 78 | 206 | 0.0 | 0.0 | 0.00 | 0.00 | 0.00 | 89 | 1016.5 |
| 20260906132531 | 78 | 206 | 0.0 | 0.0 | 0.00 | 0.00 | 0.00 | 89 | 1016.3 |
| 20260906132524 | 78 | 206 | 0.0 | 0.0 | 0.00 | 0.00 | 0.00 | 89 | 1016.2 |
| 20260906131530 | 77 | 206 | 0.0 | 0.0 | 0.00 | 0.00 | 0.00 | 90 | 1016.0 |
| 20260906131030 | 77 | 206 | 0.0 | 0.0 | 0.00 | 0.00 | 0.00 | 90 | 1015.9 |
| 20260906130530 | 77 | 206 | 0.0 | 0.0 | 0.00 | 0.00 | 0.00 | 90 | 1016.0 |
| 20260906130026 | 77 | 206 | 0.0 | 0.0 | 0.00 | 0.00 | 0.00 | 90 | 1016.0 |
| 20260906125527 | 76 | 206 | 0.0 | 0.0 | 0.00 | 0.00 | 0.00 | 90 | 1015.9 |
| 20260906125025 | 76 | 206 | 0.0 | 0.0 | 0.00 | 0.00 | 0.00 | 90 | 1015.9 |
| 20260906124523 | 76 | 206 | 0.0 | 0.0 | 0.00 | 0.00 | 0.00 | 90 | 1015.8 |
| 20260906124022 | 76 | 206 | 0.0 | 0.0 | 0.00 | 0.00 | 0.00 | 90 | 1015.6 |
| 20260906123523 | 76 | 206 | 0.0 | 0.0 | 0.00 | 0.00 | 0.00 | 90 | 1015.6 |
| 20260906123019 | 76 | 206 | 0.0 | 0.0 | 0.00 | 0.00 | 0.00 | 90 | 1015.5 |
| 20260906122518 | 76 | 206 | 0.0 | 0.0 | 0.00 | 0.00 | 0.00 | 90 | 1015.3 |
| 20260906122020 | 76 | 206 | 0.0 | 0.0 | 0.00 | 0.00 | 0.00 | 89 | 1015.4 |
| 20260906121750 | 76 | 206 | 0.0 | 0.0 | 0.00 | 0.00 | 0.00 | 89 | 1015.3 |
| 20260906121017 | 76 | 206 | 0.0 | 0.0 | 0.00 | 0.00 | 0.00 | 89 | 1015.2 |
| 20260906120514 | 76 | 206 | 0.0 | 0.0 | 0.00 | 0.00 | 0.00 | 89 | 1015.2 |
| 20260906120015 | 76 | 206 | 0.0 | 0.0 | 0.00 | 0.00 | 0.00 | 89 | 1015.1 |
| 20260906115515 | 76 | 206 | 0.0 | 0.0 | 0.00 | 0.00 | 0.00 | 88 | 1015.0 |
| 20260906115013 | 76 | 206 | 0.0 | 0.0 | 0.00 | 0.00 | 0.00 | 88 | 1014.9 |
| 20260906115001 | 76 | 206 | 0.0 | 0.0 | 0.00 | 0.00 | 0.00 | 88 | 1014.7 |
| 20260906114009 | 76 | 206 | 0.0 | 0.0 | 0.00 | 0.00 | 0.00 | 88 | 1014.8 |
| 20260906113506 | 76 | 206 | 0.0 | 0.0 | 0.00 | 0.00 | 0.00 | 88 | 1014.7 |
| 20260906113230 | 77 | 206 | 0.0 | 0.0 | 0.00 | 0.00 | 0.00 | 87 | 1014.6 |
| 20260906112728 | 77 | 206 | 0.0 | 0.0 | 0.00 | 0.00 | 0.00 | 87 | 1014.5 |
| 20260906112003 | 77 | 206 | 0.0 | 0.0 | 0.00 | 0.00 | 0.00 | 87 | 1014.6 |
| 20260906111723 | 77 | 206 | 0.0 | 0.0 | 0.00 | 0.00 | 0.00 | 87 | 1014.6 |
| 20260906110952 | 77 | 206 | 0.0 | 0.0 | 0.00 | 0.00 | 0.00 | 86 | 1014.7 |
| 20260906110718 | 77 | 206 | 0.0 | 0.0 | 0.00 | 0.00 | 0.00 | 86 | 1014.6 |
| 20260906105950 | 78 | 206 | 0.0 | 0.0 | 0.00 | 0.00 | 0.00 | 85 | 1014.7 |
| 20260906105449 | 78 | 206 | 0.0 | 0.0 | 0.00 | 0.00 | 0.00 | 85 | 1014.7 |
| 20260906104947 | 78 | 206 | 0.0 | 0.0 | 0.00 | 0.00 | 0.00 | 85 | 1014.6 |
| 20260906104444 | 78 | 206 | 0.0 | 0.0 | 0.00 | 0.00 | 0.00 | 84 | 1014.6 |
| 20260906103944 | 78 | 206 | 0.0 | 0.0 | 0.00 | 0.00 | 0.00 | 84 | 1014.5 |
| 20260906103444 | 78 | 206 | 0.0 | 0.0 | 0.00 | 0.00 | 0.00 | 83 | 1014.5 |
| 20260906102942 | 79 | 206 | 0.0 | 0.0 | 0.00 | 0.00 | 0.00 | 83 | 1014.3 |
| 20260906102441 | 79 | 206 | 0.0 | 0.0 | 0.00 | 0.00 | 0.00 | 83 | 1014.3 |
| 20260906101939 | 79 | 206 | 0.0 | 0.9 | 0.00 | 0.00 | 0.00 | 82 | 1014.2 |
| 20260906101436 | 79 | 206 | 0.0 | 1.7 | 0.00 | 0.00 | 0.00 | 82 | 1014.1 |
| 20260906100934 | 79 | 206 | 0.0 | 1.7 | 0.00 | 0.00 | 0.00 | 82 | 1014.2 |
| 20260906100919 | 79 | 206 | 0.9 | 3.5 | 0.00 | 0.00 | 0.00 | 82 | 1014.1 |
| 20260906095934 | 79 | 206 | 0.9 | 3.5 | 0.00 | 0.00 | 0.00 | 82 | 1014.2 |
| 20260906095436 | 79 | 195 | 0.9 | 3.5 | 0.00 | 0.00 | 0.00 | 82 | 1014.2 |
| 20260906094935 | 79 | 196 | 0.9 | 3.5 | 0.00 | 0.00 | 0.00 | 82 | 1014.1 |
| 20260906094653 | 80 | 200 | 0.9 | 2.6 | 0.00 | 0.00 | 0.00 | 82 | 1014.3 |
| 20260906094154 | 80 | 200 | 0.9 | 2.6 | 0.00 | 0.00 | 0.00 | 82 | 1014.2 |
| 20260906093430 | 80 | 200 | 0.9 | 2.6 | 0.00 | 0.00 | 0.00 | 82 | 1014.2 |
| 20260906092930 | 80 | 200 | 0.9 | 2.6 | 0.00 | 0.00 | 0.00 | 82 | 1014.2 |
| 20260906092428 | 80 | 200 | 0.9 | 2.6 | 0.00 | 0.00 | 0.00 | 81 | 1014.2 |
| 20260906091922 | 80 | 199 | 1.7 | 3.5 | 0.00 | 0.00 | 0.00 | 81 | 1014.1 |
| 20260906091417 | 80 | 202 | 1.7 | 4.3 | 0.00 | 0.00 | 0.00 | 81 | 1014.2 |
| 20260906090915 | 80 | 234 | 1.7 | 5.2 | 0.00 | 0.00 | 0.00 | 81 | 1014.2 |
| 20260906090415 | 80 | 205 | 0.9 | 5.2 | 0.00 | 0.00 | 0.00 | 81 | 1014.2 |
| 20260906090142 | 80 | 194 | 0.9 | 2.6 | 0.00 | 0.00 | 0.00 | 81 | 1014.2 |
| 20260906085641 | 80 | 194 | 0.9 | 2.6 | 0.00 | 0.00 | 0.00 | 81 | 1014.1 |
| 20260906084916 | 81 | 190 | 0.9 | 3.5 | 0.00 | 0.00 | 0.00 | 81 | 1014.3 |
| 20260906084642 | 81 | 190 | 0.9 | 3.5 | 0.00 | 0.00 | 0.00 | 81 | 1014.2 |
| 20260906083915 | 81 | 199 | 0.9 | 3.5 | 0.00 | 0.00 | 0.00 | 81 | 1014.2 |
| 20260906083414 | 81 | 199 | 1.7 | 7.0 | 0.00 | 0.00 | 0.00 | 80 | 1014.2 |
| 20260906083137 | 81 | 200 | 1.7 | 7.0 | 0.00 | 0.00 | 0.00 | 80 | 1014.2 |
| 20260906082637 | 81 | 187 | 2.6 | 7.0 | 0.00 | 0.00 | 0.00 | 80 | 1014.1 |
| 20260906081911 | 82 | 198 | 2.6 | 7.0 | 0.00 | 0.00 | 0.00 | 80 | 1014.1 |
| 20260906081411 | 82 | 198 | 2.6 | 6.1 | 0.00 | 0.00 | 0.00 | 80 | 1014.2 |
| 20260906080911 | 82 | 184 | 2.6 | 6.1 | 0.00 | 0.00 | 0.00 | 80 | 1014.2 |
| 20260906080411 | 82 | 214 | 2.6 | 6.1 | 0.00 | 0.00 | 0.00 | 79 | 1014.2 |
| 20260906075911 | 82 | 207 | 2.6 | 6.1 | 0.00 | 0.00 | 0.00 | 79 | 1014.3 |
| 20260906075410 | 82 | 193 | 2.6 | 6.1 | 0.00 | 0.00 | 0.00 | 79 | 1014.3 |
| 20260906074911 | 82 | 186 | 3.5 | 7.8 | 0.00 | 0.00 | 0.00 | 79 | 1014.3 |
| 20260906074405 | 82 | 0 | 2.6 | 7.8 | 0.00 | 0.00 | 0.00 | 79 | 1014.5 |
| 20260906073903 | 82 | 169 | 2.6 | 7.8 | 0.00 | 0.00 | 0.00 | 79 | 1014.5 |
| 20260906073403 | 82 | 198 | 2.6 | 7.8 | 0.00 | 0.00 | 0.00 | 79 | 1014.5 |
| 20260906072902 | 82 | 202 | 2.6 | 7.8 | 0.00 | 0.00 | 0.00 | 79 | 1014.6 |
| 20260906072628 | 83 | 202 | 2.6 | 7.8 | 0.00 | 0.00 | 0.00 | 79 | 1014.5 |
| 20260906071901 | 83 | 184 | 2.6 | 8.7 | 0.00 | 0.00 | 0.00 | 79 | 1014.7 |
| 20260906071401 | 83 | 174 | 3.5 | 8.7 | 0.00 | 0.00 | 0.00 | 79 | 1014.8 |
| 20260906070901 | 83 | 168 | 3.5 | 7.8 | 0.00 | 0.00 | 0.00 | 78 | 1014.8 |
| 20260906070400 | 83 | 184 | 3.5 | 8.7 | 0.00 | 0.00 | 0.00 | 78 | 1014.7 |
| 20260906065859 | 83 | 183 | 3.5 | 8.7 | 0.00 | 0.00 | 0.00 | 78 | 1014.8 |
| 20260906065359 | 83 | 175 | 2.6 | 7.0 | 0.00 | 0.00 | 0.00 | 78 | 1014.9 |
| 20260906065121 | 83 | 187 | 3.5 | 7.8 | 0.00 | 0.00 | 0.00 | 78 | 1015.1 |
| 20260906064357 | 83 | 195 | 4.3 | 7.8 | 0.00 | 0.00 | 0.00 | 78 | 1015.1 |
| 20260906063858 | 83 | 179 | 4.3 | 7.8 | 0.00 | 0.00 | 0.00 | 78 | 1015.1 |
| 20260906063848 | 83 | 167 | 3.5 | 7.8 | 0.00 | 0.00 | 0.00 | 78 | 1015.1 |
| 20260906062857 | 83 | 169 | 3.5 | 7.8 | 0.00 | 0.00 | 0.00 | 78 | 1015.0 |
| 20260906062357 | 83 | 187 | 3.5 | 7.0 | 0.00 | 0.00 | 0.00 | 78 | 1015.1 |
| 20260906061856 | 83 | 141 | 2.6 | 8.7 | 0.00 | 0.00 | 0.00 | 77 | 1015.1 |
| 20260906061357 | 83 | 179 | 2.6 | 8.7 | 0.00 | 0.00 | 0.00 | 77 | 1015.0 |
| 20260906060857 | 83 | 171 | 2.6 | 7.0 | 0.00 | 0.00 | 0.00 | 77 | 1015.1 |
| 20260906060358 | 83 | 185 | 2.6 | 7.8 | 0.00 | 0.00 | 0.00 | 77 | 1015.1 |
| 20260906060341 | 83 | 165 | 2.6 | 7.8 | 0.00 | 0.00 | 0.00 | 77 | 1015.2 |
| 20260906055353 | 83 | 160 | 2.6 | 6.1 | 0.00 | 0.00 | 0.00 | 77 | 1015.3 |
| 20260906054853 | 83 | 149 | 2.6 | 6.1 | 0.00 | 0.00 | 0.00 | 77 | 1015.3 |
| 20260906054620 | 83 | 155 | 2.6 | 4.3 | 0.00 | 0.00 | 0.00 | 77 | 1015.3 |
| 20260906053852 | 83 | 167 | 2.6 | 7.0 | 0.00 | 0.00 | 0.00 | 77 | 1015.2 |
| 20260906053353 | 83 | 198 | 3.5 | 7.0 | 0.00 | 0.00 | 0.00 | 77 | 1015.2 |
| 20260906052852 | 83 | 175 | 2.6 | 6.1 | 0.00 | 0.00 | 0.00 | 77 | 1015.1 |
| 20260906052614 | 83 | 153 | 2.6 | 7.8 | 0.00 | 0.00 | 0.00 | 76 | 1015.1 |
| 20260906051850 | 83 | 145 | 1.7 | 7.8 | 0.00 | 0.00 | 0.00 | 76 | 1015.2 |
| 20260906051344 | 83 | 134 | 1.7 | 4.3 | 0.00 | 0.00 | 0.00 | 76 | 1015.2 |
| 20260906050838 | 83 | 0 | 1.7 | 4.3 | 0.00 | 0.00 | 0.00 | 75 | 1015.3 |
| 20260906050334 | 83 | 162 | 1.7 | 3.5 | 0.00 | 0.00 | 0.00 | 75 | 1015.3 |
| 20260906045833 | 83 | 162 | 1.7 | 5.2 | 0.00 | 0.00 | 0.00 | 75 | 1015.4 |
| 20260906045334 | 83 | 0 | 1.7 | 5.2 | 0.00 | 0.00 | 0.00 | 74 | 1015.6 |
| 20260906045103 | 84 | 142 | 1.7 | 4.3 | 0.00 | 0.00 | 0.00 | 74 | 1015.5 |
| 20260906044333 | 84 | 136 | 2.6 | 7.0 | 0.00 | 0.00 | 0.00 | 74 | 1015.4 |
| 20260906043833 | 84 | 136 | 3.5 | 7.0 | 0.00 | 0.00 | 0.00 | 73 | 1015.4 |
| 20260906043331 | 84 | 169 | 3.5 | 7.0 | 0.00 | 0.00 | 0.00 | 73 | 1015.3 |
| 20260906042832 | 84 | 136 | 3.5 | 8.7 | 0.00 | 0.00 | 0.00 | 73 | 1015.2 |
| 20260906042331 | 84 | 131 | 4.3 | 8.7 | 0.00 | 0.00 | 0.00 | 73 | 1015.3 |
| 20260906042057 | 84 | 151 | 3.5 | 7.0 | 0.00 | 0.00 | 0.00 | 72 | 1015.3 |
| 20260906041330 | 85 | 140 | 3.5 | 8.7 | 0.00 | 0.00 | 0.00 | 72 | 1015.2 |
| 20260906040829 | 85 | 147 | 4.3 | 8.7 | 0.00 | 0.00 | 0.00 | 72 | 1015.2 |
| 20260906040552 | 85 | 146 | 4.3 | 8.7 | 0.00 | 0.00 | 0.00 | 71 | 1015.1 |
| 20260906035829 | 85 | 126 | 3.5 | 8.7 | 0.00 | 0.00 | 0.00 | 71 | 1015.1 |
| 20260906035330 | 85 | 102 | 4.3 | 8.7 | 0.00 | 0.00 | 0.00 | 71 | 1015.1 |
| 20260906034828 | 85 | 130 | 4.3 | 8.7 | 0.00 | 0.00 | 0.00 | 70 | 1015.2 |
| 20260906034329 | 85 | 136 | 5.2 | 12.2 | 0.00 | 0.00 | 0.00 | 70 | 1015.2 |
| 20260906033835 | 86 | 125 | 5.2 | 12.2 | 0.00 | 0.00 | 0.00 | 69 | 1015.2 |
| 20260906033331 | 86 | 105 | 7.0 | 14.8 | 0.00 | 0.00 | 0.00 | 69 | 1015.2 |
| 20260906032829 | 86 | 121 | 7.0 | 14.8 | 0.00 | 0.00 | 0.00 | 69 | 1015.2 |
| 20260906032329 | 86 | 112 | 5.2 | 9.6 | 0.00 | 0.00 | 0.00 | 68 | 1015.1 |
| 20260906031829 | 86 | 100 | 4.3 | 8.7 | 0.00 | 0.00 | 0.00 | 68 | 1015.2 |
| 20260906031329 | 86 | 120 | 5.2 | 11.3 | 0.00 | 0.00 | 0.00 | 67 | 1015.1 |
| 20260906030829 | 87 | 123 | 5.2 | 11.3 | 0.00 | 0.00 | 0.00 | 66 | 1015.0 |
| 20260906030549 | 87 | 134 | 5.2 | 10.4 | 0.00 | 0.00 | 0.00 | 66 | 1014.9 |
| 20260906025829 | 87 | 112 | 5.2 | 9.6 | 0.00 | 0.00 | 0.00 | 65 | 1014.8 |
| 20260906025328 | 87 | 105 | 4.3 | 12.2 | 0.00 | 0.00 | 0.00 | 65 | 1014.6 |
| 20260906024830 | 87 | 121 | 5.2 | 12.2 | 0.00 | 0.00 | 0.00 | 64 | 1014.5 |
| 20260906024329 | 88 | 104 | 6.1 | 12.2 | 0.00 | 0.00 | 0.00 | 64 | 1014.5 |
| 20260906023829 | 88 | 131 | 6.1 | 14.8 | 0.00 | 0.00 | 0.00 | 63 | 1014.3 |
| 20260906023329 | 88 | 135 | 5.2 | 14.8 | 0.00 | 0.00 | 0.00 | 63 | 1014.2 |
| 20260906022829 | 88 | 109 | 4.3 | 11.3 | 0.00 | 0.00 | 0.00 | 63 | 1014.2 |
| 20260906022329 | 88 | 108 | 4.3 | 10.4 | 0.00 | 0.00 | 0.00 | 63 | 1014.0 |
| 20260906021829 | 89 | 106 | 4.3 | 11.3 | 0.00 | 0.00 | 0.00 | 63 | 1013.9 |
| 20260906021557 | 89 | 130 | 5.2 | 11.3 | 0.00 | 0.00 | 0.00 | 63 | 1013.7 |
| 20260906020825 | 89 | 100 | 6.1 | 13.0 | 0.00 | 0.00 | 0.00 | 62 | 1013.6 |
| 20260906020806 | 89 | 148 | 6.1 | 13.0 | 0.00 | 0.00 | 0.00 | 62 | 1013.6 |
| 20260906015817 | 89 | 111 | 5.2 | 10.4 | 0.00 | 0.00 | 0.00 | 62 | 1013.5 |
| 20260906015317 | 89 | 90 | 5.2 | 9.6 | 0.00 | 0.00 | 0.00 | 61 | 1013.5 |
| 20260906014815 | 90 | 114 | 6.1 | 12.2 | 0.00 | 0.00 | 0.00 | 61 | 1013.4 |
| 20260906014315 | 90 | 126 | 7.0 | 12.2 | 0.00 | 0.00 | 0.00 | 60 | 1013.3 |
| 20260906013815 | 90 | 119 | 6.1 | 11.3 | 0.00 | 0.00 | 0.00 | 60 | 1013.3 |
| 20260906013315 | 90 | 101 | 5.2 | 11.3 | 0.00 | 0.00 | 0.00 | 60 | 1013.3 |
| 20260906012815 | 91 | 101 | 6.1 | 13.0 | 0.00 | 0.00 | 0.00 | 60 | 1013.0 |
| 20260906012313 | 91 | 90 | 6.1 | 13.0 | 0.00 | 0.00 | 0.00 | 59 | 1013.2 |
| 20260906011812 | 91 | 128 | 4.3 | 9.6 | 0.00 | 0.00 | 0.00 | 59 | 1013.0 |
| 20260906011311 | 91 | 80 | 6.1 | 12.2 | 0.00 | 0.00 | 0.00 | 59 | 1013.0 |
| 20260906010811 | 91 | 93 | 7.0 | 13.0 | 0.00 | 0.00 | 0.00 | 58 | 1012.9 |
| 20260906010311 | 92 | 124 | 7.0 | 13.0 | 0.00 | 0.00 | 0.00 | 58 | 1012.9 |
| 20260906010037 | 92 | 117 | 7.0 | 13.0 | 0.00 | 0.00 | 0.00 | 57 | 1013.0 |
| 20260906005311 | 92 | 111 | 7.0 | 12.2 | 0.00 | 0.00 | 0.00 | 57 | 1013.0 |
| 20260906004811 | 93 | 95 | 7.0 | 13.0 | 0.00 | 0.00 | 0.00 | 56 | 1012.9 |
| 20260906004311 | 93 | 118 | 5.2 | 13.0 | 0.00 | 0.00 | 0.00 | 54 | 1013.0 |
| 20260906003809 | 93 | 97 | 3.5 | 7.8 | 0.00 | 0.00 | 0.00 | 51 | 1012.9 |
| 20260906003309 | 94 | 90 | 2.6 | 7.0 | 0.00 | 0.00 | 0.00 | 51 | 1012.9 |
| 20260906002809 | 94 | 92 | 3.5 | 7.8 | 0.00 | 0.00 | 0.00 | 51 | 1012.9 |
| 20260906002531 | 94 | 103 | 3.5 | 7.8 | 0.00 | 0.00 | 0.00 | 51 | 1012.8 |
| 20260906001809 | 94 | 86 | 3.5 | 7.0 | 0.00 | 0.00 | 0.00 | 50 | 1012.8 |
| 20260906001531 | 95 | 130 | 3.5 | 7.0 | 0.00 | 0.00 | 0.00 | 50 | 1012.7 |
| 20260906000809 | 95 | 111 | 2.6 | 6.1 | 0.00 | 0.00 | 0.00 | 50 | 1012.7 |
| 20260906000311 | 95 | 102 | 2.6 | 6.1 | 0.00 | 0.00 | 0.00 | 49 | 1012.7 |
| 20260905235809 | 95 | 125 | 2.6 | 6.1 | 0.00 | 0.00 | 0.00 | 48 | 1012.7 |
| 20260905235306 | 95 | 149 | 2.6 | 7.0 | 0.00 | 0.00 | 0.00 | 49 | 1012.6 |